Powrót do katalogu

COSMOS 2251 DEB

AktywnyLEO
NORAD 33799·DEBRIS·🇷🇺 Russia

Wystrzelony Jun 16, 1993 z Plesetsk Cosmodrome

Loading…

Następne Przeloty (najbliższe 24 godziny)

TLE

ŚwieżeSource: Space-Track

Epoka: Sep 14, 2026, 08:41 UTC

1 33799U 93036AQ  26257.36227147  .00008518  00000-0  95941-3 0  9999
2 33799  74.0300 255.8568 0026450 262.1001 164.1157 14.86506205928983

Śledź COSMOS 2251 DEB w czasie rzeczywistym z AllMySat

Download on the App Store